| time (UTC) | temp C | wind direction | speed KPH | gust KPH | rain 1hr cm | rain 24hr cm | rain mn cm | humidity % | barometer mb |
| 20260502195909 | 15 | 48 | 3.2 | 4.8 | 0.18 | 0.28 | 0.46 | 74 | 1013.8 |
| 20260502195413 | 15 | 0 | 1.6 | 9.7 | 0.18 | 0.28 | 0.46 | 74 | 1013.9 |
| 20260502194909 | 15 | 24 | 3.2 | 9.7 | 0.20 | 0.28 | 0.46 | 74 | 1013.9 |
| 20260502194410 | 15 | 89 | 4.8 | 8.0 | 0.23 | 0.28 | 0.46 | 74 | 1014.1 |
| 20260502193909 | 15 | 51 | 0.0 | 4.8 | 0.23 | 0.28 | 0.43 | 73 | 1014.4 |
| 20260502193411 | 15 | 38 | 1.6 | 14.5 | 0.23 | 0.28 | 0.43 | 73 | 1014.3 |
| 20260502192908 | 16 | 89 | 4.8 | 14.5 | 0.28 | 0.28 | 0.43 | 72 | 1014.4 |
| 20260502192409 | 16 | 87 | 4.8 | 9.7 | 0.33 | 0.28 | 0.41 | 72 | 1014.3 |
| 20260502192147 | 16 | 100 | 3.2 | 6.4 | 0.33 | 0.28 | 0.41 | 72 | 1014.4 |
| 20260502191407 | 16 | 90 | 1.6 | 4.8 | 0.30 | 0.28 | 0.36 | 72 | 1014.4 |
| 20260502190909 | 16 | 171 | 3.2 | 6.4 | 0.25 | 0.28 | 0.33 | 71 | 1014.3 |
| 20260502190406 | 16 | 166 | 3.2 | 6.4 | 0.20 | 0.28 | 0.28 | 71 | 1014.4 |
| 20260502185906 | 16 | 186 | 1.6 | 4.8 | 0.20 | 0.08 | 0.28 | 71 | 1014.4 |
| 20260502185641 | 16 | 171 | 3.2 | 6.4 | 0.20 | 0.08 | 0.28 | 70 | 1014.4 |
| 20260502184906 | 16 | 176 | 3.2 | 6.4 | 0.20 | 0.08 | 0.25 | 70 | 1014.4 |
| 20260502184406 | 16 | 189 | 3.2 | 8.0 | 0.18 | 0.08 | 0.23 | 69 | 1014.6 |
| 20260502183906 | 16 | 207 | 3.2 | 8.0 | 0.15 | 0.08 | 0.23 | 69 | 1014.8 |
| 20260502183639 | 17 | 237 | 3.2 | 11.3 | 0.15 | 0.08 | 0.20 | 68 | 1014.9 |
| 20260502182407 | 17 | 213 | 4.8 | 14.5 | 0.03 | 0.08 | 0.08 | 67 | 1014.7 |
| 20260502181906 | 17 | 213 | 4.8 | 16.1 | 0.05 | 0.08 | 0.08 | 66 | 1014.6 |
| 20260502181406 | 17 | 212 | 4.8 | 19.3 | 0.05 | 0.08 | 0.08 | 66 | 1014.5 |
| 20260502180905 | 17 | 188 | 8.0 | 24.1 | 0.08 | 0.08 | 0.08 | 66 | 1014.4 |
| 20260502180405 | 17 | 127 | 14.5 | 24.1 | 0.08 | 0.08 | 0.08 | 64 | 1014.3 |
| 20260502180144 | 17 | 148 | 12.9 | 32.2 | 0.08 | 0.00 | 0.08 | 63 | 1014.1 |
| 20260502170409 | 21 | 59 | 0.0 | 4.8 | 0.00 | 0.00 | 0.00 | 65 | 1013.8 |
| 20260502163904 | 22 | 83 | 6.4 | 16.1 | 0.00 | 0.00 | 0.00 | 60 | 1013.9 |
| 20260502163640 | 22 | 133 | 6.4 | 16.1 | 0.00 | 0.00 | 0.00 | 59 | 1014.0 |
| 20260502163146 | 22 | 175 | 6.4 | 24.1 | 0.00 | 0.00 | 0.00 | 58 | 1014.1 |
| 20260502162403 | 23 | 145 | 9.7 | 24.1 | 0.00 | 0.00 | 0.00 | 57 | 1014.3 |
| 20260502161905 | 23 | 140 | 14.5 | 20.9 | 0.00 | 0.00 | 0.00 | 55 | 1014.3 |
| 20260502161403 | 24 | 145 | 9.7 | 19.3 | 0.00 | 0.00 | 0.00 | 54 | 1014.3 |
| 20260502160904 | 24 | 69 | 6.4 | 16.1 | 0.00 | 0.00 | 0.00 | 54 | 1014.3 |
| 20260502151901 | 25 | 162 | 4.8 | 9.7 | 0.00 | 0.00 | 0.00 | 47 | 1014.9 |
| 20260502151401 | 26 | 182 | 3.2 | 9.7 | 0.00 | 0.00 | 0.00 | 48 | 1015.0 |
| 20260502150901 | 26 | 203 | 6.4 | 9.7 | 0.00 | 0.00 | 0.00 | 46 | 1015.0 |
| 20260502150401 | 26 | 259 | 1.6 | 6.4 | 0.00 | 0.00 | 0.00 | 48 | 1015.2 |
| 20260502130358 | 25 | 207 | 6.4 | 17.7 | 0.00 | 0.00 | 0.00 | 48 | 1016.8 |
| 20260502123357 | 25 | 230 | 9.7 | 16.1 | 0.00 | 0.00 | 0.00 | 48 | 1016.9 |
| 20260502122857 | 25 | 274 | 8.0 | 20.9 | 0.00 | 0.00 | 0.00 | 50 | 1016.9 |
| 20260502122357 | 25 | 199 | 8.0 | 20.9 | 0.00 | 0.00 | 0.00 | 50 | 1017.0 |
| 20260502121900 | 24 | 195 | 9.7 | 17.7 | 0.00 | 0.00 | 0.00 | 50 | 1017.2 |
| 20260502121137 | 24 | 209 | 9.7 | 22.5 | 0.00 | 0.00 | 0.00 | 49 | 1017.4 |
| 20260502120356 | 24 | 226 | 8.0 | 22.5 | 0.00 | 0.00 | 0.00 | 50 | 1017.4 |
| 20260502115858 | 24 | 217 | 9.7 | 22.5 | 0.00 | 0.00 | 0.00 | 49 | 1017.3 |
| 20260502115356 | 25 | 185 | 6.4 | 14.5 | 0.00 | 0.00 | 0.00 | 48 | 1017.4 |
| 20260502114856 | 25 | 165 | 4.8 | 14.5 | 0.00 | 0.00 | 0.00 | 50 | 1017.4 |
| 20260502114631 | 25 | 228 | 8.0 | 14.5 | 0.00 | 0.00 | 0.00 | 50 | 1017.5 |
| 20260502113855 | 24 | 307 | 4.8 | 14.5 | 0.00 | 0.00 | 0.00 | 50 | 1017.5 |
| 20260502113356 | 24 | 228 | 4.8 | 16.1 | 0.00 | 0.00 | 0.00 | 50 | 1017.6 |
| 20260502112857 | 24 | 220 | 8.0 | 16.1 | 0.00 | 0.00 | 0.00 | 50 | 1017.6 |
| 20260502112357 | 24 | 233 | 6.4 | 11.3 | 0.00 | 0.00 | 0.00 | 49 | 1017.7 |
| 20260502111856 | 24 | 175 | 4.8 | 11.3 | 0.00 | 0.00 | 0.00 | 51 | 1017.8 |
| 20260502111356 | 23 | 193 | 8.0 | 14.5 | 0.00 | 0.00 | 0.00 | 50 | 1017.9 |
| 20260502110855 | 24 | 237 | 6.4 | 14.5 | 0.00 | 0.00 | 0.00 | 50 | 1017.8 |
| 20260502110355 | 23 | 203 | 1.6 | 11.3 | 0.00 | 0.00 | 0.00 | 51 | 1017.9 |
| 20260502105854 | 23 | 203 | 6.4 | 16.1 | 0.00 | 0.00 | 0.00 | 50 | 1017.9 |
| 20260502105352 | 23 | 266 | 8.0 | 16.1 | 0.00 | 0.00 | 0.00 | 50 | 1018.1 |
| 20260502104851 | 23 | 190 | 4.8 | 11.3 | 0.00 | 0.00 | 0.00 | 51 | 1018.1 |
| 20260502104353 | 23 | 326 | 4.8 | 9.7 | 0.00 | 0.00 | 0.00 | 51 | 1018.1 |
| 20260502103853 | 23 | 210 | 6.4 | 16.1 | 0.00 | 0.00 | 0.00 | 50 | 1018.2 |
| 20260502103350 | 23 | 155 | 4.8 | 16.1 | 0.00 | 0.00 | 0.00 | 50 | 1018.2 |
| 20260502102849 | 23 | 190 | 6.4 | 14.5 | 0.00 | 0.00 | 0.00 | 51 | 1018.3 |
| 20260502102349 | 22 | 195 | 6.4 | 11.3 | 0.00 | 0.00 | 0.00 | 50 | 1018.4 |
| 20260502101849 | 22 | 233 | 4.8 | 17.7 | 0.00 | 0.00 | 0.00 | 52 | 1018.5 |
| 20260502101347 | 22 | 190 | 9.7 | 17.7 | 0.00 | 0.00 | 0.00 | 52 | 1018.5 |
| 20260502100847 | 22 | 199 | 1.6 | 14.5 | 0.00 | 0.00 | 0.00 | 53 | 1018.6 |
| 20260502100618 | 22 | 193 | 4.8 | 16.1 | 0.00 | 0.00 | 0.00 | 54 | 1018.6 |
| 20260502091338 | 20 | 235 | 6.4 | 11.3 | 0.00 | 0.00 | 0.00 | 55 | 1018.9 |
| 20260502090838 | 20 | 226 | 4.8 | 11.3 | 0.00 | 0.00 | 0.00 | 55 | 1018.9 |
| 20260502090337 | 20 | 193 | 3.2 | 9.7 | 0.00 | 0.00 | 0.00 | 55 | 1018.9 |
| 20260502071328 | 17 | 259 | 1.6 | 6.4 | 0.00 | 0.00 | 0.00 | 56 | 1019.3 |
| 20260502070828 | 16 | 262 | 0.0 | 4.8 | 0.00 | 0.00 | 0.00 | 57 | 1019.3 |
| 20260502070326 | 16 | 168 | 1.6 | 4.8 | 0.00 | 0.00 | 0.00 | 57 | 1019.4 |
| 20260502065827 | 15 | 203 | 1.6 | 3.2 | 0.00 | 0.00 | 0.00 | 58 | 1019.4 |
| 20260502065602 | 15 | 266 | 1.6 | 3.2 | 0.00 | 0.00 | 0.00 | 59 | 1019.4 |
| 20260502064826 | 14 | 157 | 0.0 | 3.2 | 0.00 | 0.00 | 0.00 | 60 | 1019.4 |
| 20260502064323 | 13 | 142 | 0.0 | 3.2 | 0.00 | 0.00 | 0.00 | 61 | 1019.3 |
| 20260502063822 | 13 | 142 | 1.6 | 3.2 | 0.00 | 0.00 | 0.00 | 61 | 1019.3 |
| 20260502063323 | 13 | 138 | 0.0 | 3.2 | 0.00 | 0.00 | 0.00 | 61 | 1019.3 |
| 20260502062819 | 12 | 103 | 0.0 | 3.2 | 0.00 | 0.00 | 0.00 | 62 | 1019.2 |
| 20260502062321 | 12 | 155 | 0.0 | 3.2 | 0.00 | 0.00 | 0.00 | 62 | 1019.3 |
| 20260502061820 | 12 | 141 | 1.6 | 4.8 | 0.00 | 0.00 | 0.00 | 61 | 1019.3 |
| 20260502061323 | 12 | 96 | 3.2 | 4.8 | 0.00 | 0.00 | 0.00 | 61 | 1019.3 |
| 20260502060820 | 12 | 134 | 0.0 | 4.8 | 0.00 | 0.00 | 0.00 | 62 | 1019.3 |
| 20260502060320 | 12 | 144 | 3.2 | 4.8 | 0.00 | 0.00 | 0.00 | 62 | 1019.2 |
| 20260502055819 | 12 | 128 | 1.6 | 4.8 | 0.00 | 0.00 | 0.00 | 62 | 1019.2 |
| 20260502055319 | 12 | 117 | 1.6 | 4.8 | 0.00 | 0.00 | 0.00 | 62 | 1019.3 |
| 20260502054816 | 11 | 145 | 1.6 | 6.4 | 0.00 | 0.00 | 0.00 | 62 | 1019.4 |
| 20260502054317 | 11 | 151 | 3.2 | 6.4 | 0.00 | 0.00 | 0.00 | 63 | 1019.3 |
| 20260502053814 | 11 | 142 | 1.6 | 4.8 | 0.00 | 0.00 | 0.00 | 63 | 1019.4 |
| 20260502053314 | 11 | 148 | 3.2 | 4.8 | 0.00 | 0.00 | 0.00 | 64 | 1019.3 |
| 20260502053053 | 11 | 154 | 0.0 | 8.0 | 0.00 | 0.00 | 0.00 | 64 | 1019.2 |
| 20260502052315 | 11 | 154 | 0.0 | 9.7 | 0.00 | 0.00 | 0.00 | 64 | 1019.1 |
| 20260502051815 | 11 | 151 | 6.4 | 9.7 | 0.00 | 0.00 | 0.00 | 64 | 1019.1 |
| 20260502051311 | 10 | 131 | 1.6 | 4.8 | 0.00 | 0.00 | 0.00 | 66 | 1019.1 |
| 20260502050810 | 10 | 113 | 1.6 | 4.8 | 0.00 | 0.00 | 0.00 | 67 | 1019.1 |
| 20260502050316 | 10 | 131 | 1.6 | 4.8 | 0.00 | 0.00 | 0.00 | 68 | 1019.1 |
| 20260502045310 | 8 | 110 | 0.0 | 3.2 | 0.00 | 0.00 | 0.00 | 68 | 1019.1 |
| 20260502044808 | 8 | 133 | 0.0 | 3.2 | 0.00 | 0.00 | 0.00 | 68 | 1019.1 |
| 20260502044307 | 8 | 0 | 1.6 | 4.8 | 0.00 | 0.00 | 0.00 | 68 | 1019.2 |
| 20260502043808 | 8 | 116 | 1.6 | 4.8 | 0.00 | 0.00 | 0.00 | 68 | 1019.1 |
| 20260502043308 | 7 | 93 | 1.6 | 4.8 | 0.00 | 0.00 | 0.00 | 68 | 1019.2 |
| 20260502042806 | 7 | 140 | 3.2 | 4.8 | 0.00 | 0.00 | 0.00 | 68 | 1019.4 |
| 20260502042306 | 7 | 138 | 3.2 | 4.8 | 0.00 | 0.00 | 0.00 | 67 | 1019.4 |
| 20260502041804 | 7 | 165 | 0.0 | 3.2 | 0.00 | 0.00 | 0.00 | 66 | 1019.3 |
| 20260502041303 | 7 | 165 | 0.0 | 3.2 | 0.00 | 0.00 | 0.00 | 67 | 1019.3 |
| 20260502040805 | 7 | 165 | 1.6 | 3.2 | 0.00 | 0.00 | 0.00 | 66 | 1019.2 |
| 20260502040303 | 8 | 233 | 0.0 | 1.6 | 0.00 | 0.00 | 0.00 | 66 | 1019.3 |
| 20260502035802 | 8 | 233 | 0.0 | 3.2 | 0.00 | 0.00 | 0.00 | 67 | 1019.3 |
| 20260502035537 | 8 | 233 | 0.0 | 3.2 | 0.00 | 0.00 | 0.00 | 67 | 1019.5 |
| 20260502034801 | 8 | 234 | 0.0 | 3.2 | 0.00 | 0.00 | 0.00 | 67 | 1019.5 |
| 20260502034302 | 8 | 235 | 1.6 | 3.2 | 0.00 | 0.00 | 0.00 | 67 | 1019.4 |
| 20260502033805 | 8 | 171 | 0.0 | 1.6 | 0.00 | 0.00 | 0.00 | 66 | 1019.3 |
| 20260502033537 | 8 | 169 | 0.0 | 1.6 | 0.00 | 0.00 | 0.00 | 66 | 1019.4 |
| 20260502032803 | 8 | 145 | 0.0 | 4.8 | 0.00 | 0.00 | 0.00 | 67 | 1019.3 |
| 20260502032305 | 7 | 145 | 1.6 | 4.8 | 0.00 | 0.00 | 0.00 | 67 | 1019.4 |
| 20260502032045 | 7 | 140 | 1.6 | 4.8 | 0.00 | 0.00 | 0.00 | 68 | 1019.4 |
| 20260502031303 | 7 | 148 | 1.6 | 4.8 | 0.00 | 0.00 | 0.00 | 67 | 1019.4 |
| 20260502030804 | 7 | 131 | 0.0 | 4.8 | 0.00 | 0.00 | 0.00 | 66 | 1019.4 |
| 20260502030302 | 7 | 131 | 0.0 | 4.8 | 0.00 | 0.00 | 0.00 | 67 | 1019.4 |
| 20260502025803 | 7 | 158 | 3.2 | 4.8 | 0.00 | 0.00 | 0.00 | 68 | 1019.6 |
| 20260502025302 | 7 | 154 | 0.0 | 4.8 | 0.00 | 0.00 | 0.00 | 69 | 1019.5 |
| 20260502024801 | 7 | 125 | 1.6 | 3.2 | 0.00 | 0.00 | 0.00 | 69 | 1019.6 |
| 20260502024302 | 6 | 151 | 1.6 | 3.2 | 0.00 | 0.00 | 0.00 | 70 | 1019.6 |
| 20260502023803 | 6 | 154 | 1.6 | 3.2 | 0.00 | 0.00 | 0.00 | 70 | 1019.7 |
| 20260502023539 | 6 | 127 | 0.0 | 1.6 | 0.00 | 0.00 | 0.00 | 70 | 1019.6 |
| 20260502022802 | 6 | 127 | 0.0 | 0.0 | 0.00 | 0.00 | 0.00 | 70 | 1019.6 |
| 20260502022301 | 6 | 127 | 0.0 | 0.0 | 0.00 | 0.00 | 0.00 | 70 | 1019.7 |
| 20260502021802 | 6 | 127 | 0.0 | 0.0 | 0.00 | 0.00 | 0.00 | 69 | 1019.7 |
| 20260502021302 | 6 | 127 | 0.0 | 3.2 | 0.00 | 0.00 | 0.00 | 69 | 1019.8 |
| 20260502020801 | 6 | 127 | 0.0 | 3.2 | 0.00 | 0.00 | 0.00 | 70 | 1019.9 |
| 20260502020302 | 6 | 149 | 0.0 | 3.2 | 0.00 | 0.00 | 0.00 | 69 | 1019.9 |
| 20260502015802 | 6 | 94 | 0.0 | 0.0 | 0.00 | 0.00 | 0.00 | 69 | 1019.9 |
| 20260502015537 | 6 | 94 | 0.0 | 1.6 | 0.00 | 0.00 | 0.00 | 69 | 1019.9 |
| 20260502014802 | 6 | 94 | 0.0 | 1.6 | 0.00 | 0.00 | 0.00 | 70 | 1019.9 |
| 20260502014301 | 6 | 94 | 0.0 | 0.0 | 0.00 | 0.00 | 0.00 | 69 | 1019.9 |
| 20260502013802 | 6 | 94 | 0.0 | 1.6 | 0.00 | 0.00 | 0.00 | 69 | 1020.0 |
| 20260502013302 | 6 | 94 | 0.0 | 1.6 | 0.00 | 0.00 | 0.00 | 69 | 1020.0 |
| 20260502013044 | 6 | 94 | 0.0 | 1.6 | 0.00 | 0.00 | 0.00 | 68 | 1019.9 |
| 20260502012306 | 6 | 93 | 0.0 | 0.0 | 0.00 | 0.00 | 0.00 | 68 | 1020.1 |
| 20260502011801 | 6 | 93 | 0.0 | 0.0 | 0.00 | 0.00 | 0.00 | 69 | 1020.1 |
| 20260502011303 | 6 | 93 | 0.0 | 0.0 | 0.00 | 0.00 | 0.00 | 68 | 1020.1 |
| 20260502010803 | 6 | 93 | 0.0 | 0.0 | 0.00 | 0.00 | 0.00 | 68 | 1020.0 |
| 20260502010302 | 6 | 93 | 0.0 | 0.0 | 0.00 | 0.00 | 0.00 | 68 | 1020.2 |
| 20260502005801 | 6 | 93 | 0.0 | 0.0 | 0.00 | 0.00 | 0.00 | 68 | 1020.3 |
| 20260502005258 | 6 | 94 | 0.0 | 0.0 | 0.00 | 0.00 | 0.00 | 67 | 1020.3 |
| 20260502004800 | 6 | 94 | 0.0 | 0.0 | 0.00 | 0.00 | 0.00 | 67 | 1020.3 |
| 20260502004259 | 7 | 96 | 0.0 | 0.0 | 0.00 | 0.00 | 0.00 | 67 | 1020.3 |
| 20260502003758 | 7 | 96 | 0.0 | 0.0 | 0.00 | 0.00 | 0.00 | 67 | 1020.3 |
| 20260502003300 | 7 | 96 | 0.0 | 0.0 | 0.00 | 0.00 | 0.00 | 67 | 1020.4 |
| 20260502002756 | 7 | 96 | 0.0 | 0.0 | 0.00 | 0.00 | 0.00 | 67 | 1020.4 |
| 20260502002257 | 7 | 94 | 0.0 | 0.0 | 0.00 | 0.00 | 0.00 | 67 | 1020.4 |
| 20260502001756 | 7 | 93 | 0.0 | 0.0 | 0.00 | 0.00 | 0.00 | 67 | 1020.4 |
| 20260502001255 | 7 | 93 | 0.0 | 1.6 | 0.00 | 0.00 | 0.00 | 67 | 1020.5 |
| 20260502001037 | 7 | 93 | 0.0 | 1.6 | 0.00 | 0.00 | 0.00 | 67 | 1020.5 |
| 20260502000255 | 7 | 93 | 0.0 | 1.6 | 0.00 | 0.00 | 0.00 | 66 | 1020.6 |
| 20260501235753 | 7 | 93 | 0.0 | 1.6 | 0.00 | 0.00 | 0.00 | 67 | 1020.7 |
| 20260501235253 | 7 | 93 | 0.0 | 0.0 | 0.00 | 0.00 | 0.00 | 67 | 1020.8 |
| 20260501234755 | 7 | 93 | 0.0 | 0.0 | 0.00 | 0.00 | 0.00 | 67 | 1020.8 |
| 20260501234252 | 8 | 93 | 0.0 | 0.0 | 0.00 | 0.00 | 0.00 | 66 | 1020.8 |
| 20260501233752 | 8 | 93 | 0.0 | 0.0 | 0.00 | 0.00 | 0.00 | 66 | 1020.9 |
| 20260501233250 | 8 | 93 | 0.0 | 1.6 | 0.00 | 0.00 | 0.00 | 66 | 1021.0 |
| 20260501232750 | 8 | 92 | 0.0 | 1.6 | 0.00 | 0.00 | 0.00 | 66 | 1021.0 |
| 20260501232249 | 8 | 92 | 0.0 | 3.2 | 0.00 | 0.00 | 0.00 | 66 | 1021.0 |
| 20260501232034 | 8 | 92 | 1.6 | 3.2 | 0.00 | 0.00 | 0.00 | 66 | 1021.0 |
| 20260501231042 | 8 | 92 | 1.6 | 1.6 | 0.00 | 0.00 | 0.00 | 65 | 1021.2 |
| 20260501230522 | 8 | 92 | 0.0 | 0.0 | 0.00 | 0.00 | 0.00 | 65 | 1021.2 |
| 20260501225747 | 9 | 92 | 0.0 | 0.0 | 0.00 | 0.00 | 0.00 | 64 | 1021.3 |
| 20260501225249 | 9 | 92 | 0.0 | 0.0 | 0.00 | 0.00 | 0.00 | 65 | 1021.3 |
| 20260501224246 | 9 | 92 | 0.0 | 0.0 | 0.00 | 0.00 | 0.00 | 64 | 1021.4 |
| 20260501224019 | 9 | 92 | 0.0 | 1.6 | 0.00 | 0.00 | 0.00 | 64 | 1021.3 |
| 20260501223244 | 10 | 92 | 0.0 | 1.6 | 0.00 | 0.00 | 0.00 | 64 | 1021.3 |
| 20260501222743 | 10 | 92 | 0.0 | 1.6 | 0.00 | 0.00 | 0.00 | 64 | 1021.2 |
| 20260501222241 | 10 | 92 | 0.0 | 3.2 | 0.00 | 0.00 | 0.00 | 64 | 1021.2 |
| 20260501221741 | 10 | 92 | 1.6 | 3.2 | 0.00 | 0.00 | 0.00 | 64 | 1021.2 |
| 20260501221519 | 10 | 92 | 0.0 | 0.0 | 0.00 | 0.00 | 0.00 | 64 | 1021.3 |
| 20260501220239 | 10 | 92 | 0.0 | 0.0 | 0.00 | 0.00 | 0.00 | 63 | 1021.2 |
| 20260501215738 | 10 | 92 | 0.0 | 0.0 | 0.00 | 0.00 | 0.00 | 62 | 1021.2 |
| 20260501215239 | 10 | 92 | 0.0 | 0.0 | 0.00 | 0.00 | 0.00 | 62 | 1021.3 |
| 20260501214739 | 10 | 92 | 0.0 | 3.2 | 0.00 | 0.00 | 0.00 | 62 | 1021.2 |
| 20260501214240 | 10 | 92 | 0.0 | 3.2 | 0.00 | 0.00 | 0.00 | 62 | 1021.2 |
| 20260501213739 | 11 | 117 | 1.6 | 3.2 | 0.00 | 0.00 | 0.00 | 61 | 1021.3 |
| 20260501213239 | 11 | 189 | 0.0 | 0.0 | 0.00 | 0.00 | 0.00 | 61 | 1021.4 |
| 20260501212740 | 11 | 189 | 0.0 | 0.0 | 0.00 | 0.00 | 0.00 | 60 | 1021.3 |
| 20260501212237 | 11 | 189 | 0.0 | 0.0 | 0.00 | 0.00 | 0.00 | 60 | 1021.3 |
| 20260501211737 | 11 | 189 | 0.0 | 0.0 | 0.00 | 0.00 | 0.00 | 58 | 1021.4 |
| 20260501211237 | 12 | 189 | 0.0 | 0.0 | 0.00 | 0.00 | 0.00 | 57 | 1021.3 |
| 20260501210738 | 12 | 189 | 0.0 | 0.0 | 0.00 | 0.00 | 0.00 | 56 | 1021.4 |
| 20260501210238 | 13 | 189 | 0.0 | 0.0 | 0.00 | 0.00 | 0.00 | 55 | 1021.4 |
| 20260501205739 | 13 | 189 | 0.0 | 0.0 | 0.00 | 0.00 | 0.00 | 53 | 1021.3 |
| 20260501205236 | 13 | 189 | 0.0 | 0.0 | 0.00 | 0.00 | 0.00 | 52 | 1021.3 |
| 20260501204738 | 14 | 189 | 0.0 | 0.0 | 0.00 | 0.00 | 0.00 | 51 | 1021.3 |
| 20260501204511 | 15 | 189 | 0.0 | 0.0 | 0.00 | 0.00 | 0.00 | 50 | 1021.3 |
| 20260501203736 | 15 | 189 | 0.0 | 0.0 | 0.00 | 0.00 | 0.00 | 50 | 1021.3 |
| 20260501203236 | 15 | 189 | 0.0 | 0.0 | 0.00 | 0.00 | 0.00 | 48 | 1021.4 |
| 20260501202736 | 16 | 189 | 0.0 | 0.0 | 0.00 | 0.00 | 0.00 | 48 | 1021.4 |
| 20260501202237 | 16 | 189 | 0.0 | 8.0 | 0.00 | 0.00 | 0.00 | 47 | 1021.4 |
| 20260501201735 | 16 | 189 | 0.0 | 8.0 | 0.00 | 0.00 | 0.00 | 47 | 1021.3 |
| 20260501201236 | 16 | 152 | 3.2 | 6.4 | 0.00 | 0.00 | 0.00 | 46 | 1021.3 |
| 20260501200736 | 17 | 176 | 1.6 | 4.8 | 0.00 | 0.00 | 0.00 | 46 | 1021.1 |
| 20260501200236 | 17 | 155 | 1.6 | 4.8 | 0.00 | 0.00 | 0.00 | 45 | 1021.1 |